| time (UTC) | temp F | wind direction | speed MPH | gust MPH | rain 1hr in | rain 24hr in | rain mn in | humidity % | barometer mb |
| 20260831125035 | 74 | 321 | 1.0 | 3.0 | 0.00 | 0.00 | 0.00 | 85 | 1022.4 |
| 20260831124234 | 73 | 316 | 1.0 | 4.0 | 0.00 | 0.00 | 0.00 | 87 | 1022.2 |
| 20260831123735 | 72 | 316 | 1.0 | 4.0 | 0.00 | 0.00 | 0.00 | 88 | 1022.3 |
| 20260831123234 | 72 | 0 | 0.0 | 3.0 | 0.00 | 0.00 | 0.00 | 89 | 1022.2 |
| 20260831122734 | 71 | 0 | 0.0 | 3.0 | 0.00 | 0.00 | 0.00 | 90 | 1022.2 |
| 20260831122234 | 70 | 0 | 0.0 | 3.0 | 0.00 | 0.00 | 0.00 | 91 | 1022.1 |
| 20260831121746 | 70 | 302 | 1.0 | 3.0 | 0.00 | 0.00 | 0.00 | 92 | 1022.1 |
| 20260831121236 | 69 | 298 | 1.0 | 4.0 | 0.00 | 0.00 | 0.00 | 93 | 1022.1 |
| 20260831120742 | 69 | 298 | 1.0 | 4.0 | 0.00 | 0.00 | 0.00 | 94 | 1022.1 |
| 20260831120121 | 68 | 298 | 1.0 | 4.0 | 0.00 | 0.00 | 0.00 | 95 | 1022.1 |
| 20260831115621 | 68 | 298 | 2.0 | 4.0 | 0.00 | 0.00 | 0.00 | 95 | 1022.1 |
| 20260831115131 | 67 | 298 | 1.0 | 4.0 | 0.00 | 0.00 | 0.00 | 95 | 1022.1 |
| 20260831114631 | 67 | 296 | 1.0 | 4.0 | 0.00 | 0.00 | 0.00 | 95 | 1022.1 |
| 20260831114122 | 67 | 292 | 2.0 | 4.0 | 0.00 | 0.00 | 0.00 | 95 | 1022.1 |
| 20260831113233 | 67 | 289 | 2.0 | 3.0 | 0.00 | 0.00 | 0.00 | 96 | 1022.1 |
| 20260831112735 | 67 | 286 | 2.0 | 3.0 | 0.00 | 0.00 | 0.00 | 96 | 1022.1 |
| 20260831112233 | 67 | 286 | 1.0 | 4.0 | 0.00 | 0.00 | 0.00 | 96 | 1021.9 |
| 20260831111736 | 67 | 284 | 1.0 | 4.0 | 0.00 | 0.00 | 0.00 | 96 | 1021.9 |
| 20260831111234 | 67 | 283 | 1.0 | 3.0 | 0.00 | 0.00 | 0.00 | 96 | 1021.9 |
| 20260831110733 | 67 | 282 | 1.0 | 3.0 | 0.00 | 0.00 | 0.00 | 96 | 1021.9 |
| 20260831110236 | 67 | 277 | 1.0 | 3.0 | 0.00 | 0.00 | 0.00 | 96 | 1021.9 |
| 20260831105733 | 67 | 271 | 1.0 | 3.0 | 0.00 | 0.00 | 0.00 | 96 | 1021.8 |
| 20260831105234 | 67 | 271 | 1.0 | 3.0 | 0.00 | 0.00 | 0.00 | 96 | 1021.8 |
| 20260831104738 | 67 | 271 | 1.0 | 3.0 | 0.00 | 0.00 | 0.00 | 96 | 1021.7 |
| 20260831104235 | 67 | 270 | 1.0 | 3.0 | 0.00 | 0.00 | 0.00 | 96 | 1021.6 |
| 20260831103734 | 67 | 270 | 1.0 | 3.0 | 0.00 | 0.00 | 0.00 | 96 | 1021.6 |
| 20260831103252 | 67 | 270 | 1.0 | 3.0 | 0.00 | 0.00 | 0.00 | 96 | 1021.5 |
| 20260831102735 | 67 | 270 | 1.0 | 3.0 | 0.00 | 0.00 | 0.00 | 96 | 1021.5 |
| 20260831102110 | 67 | 0 | 0.0 | 2.0 | 0.00 | 0.00 | 0.00 | 95 | 1021.5 |
| 20260831101610 | 67 | 0 | 0.0 | 2.0 | 0.00 | 0.00 | 0.00 | 95 | 1021.5 |
| 20260831100853 | 67 | 0 | 0.0 | 2.0 | 0.00 | 0.00 | 0.00 | 96 | 1021.6 |
| 20260831100355 | 67 | 0 | 0.0 | 3.0 | 0.00 | 0.00 | 0.00 | 96 | 1021.6 |
| 20260831095904 | 67 | 270 | 1.0 | 3.0 | 0.00 | 0.00 | 0.00 | 96 | 1021.5 |
| 20260831095352 | 67 | 270 | 1.0 | 3.0 | 0.00 | 0.00 | 0.00 | 96 | 1021.4 |
| 20260831094900 | 67 | 270 | 1.0 | 3.0 | 0.00 | 0.00 | 0.00 | 96 | 1021.4 |
| 20260831094352 | 67 | 270 | 1.0 | 3.0 | 0.00 | 0.00 | 0.00 | 96 | 1021.4 |
| 20260831093852 | 67 | 269 | 1.0 | 3.0 | 0.00 | 0.00 | 0.00 | 96 | 1021.4 |
| 20260831093353 | 67 | 268 | 1.0 | 3.0 | 0.00 | 0.00 | 0.00 | 96 | 1021.4 |
| 20260831092002 | 67 | 267 | 1.0 | 3.0 | 0.00 | 0.00 | 0.00 | 97 | 1021.5 |
| 20260831091415 | 67 | 267 | 1.0 | 3.0 | 0.00 | 0.00 | 0.00 | 97 | 1021.5 |
| 20260831090907 | 66 | 267 | 1.0 | 3.0 | 0.00 | 0.00 | 0.00 | 97 | 1021.5 |
| 20260831090410 | 66 | 267 | 1.0 | 3.0 | 0.00 | 0.00 | 0.00 | 97 | 1021.5 |
| 20260831085506 | 66 | 267 | 1.0 | 3.0 | 0.00 | 0.00 | 0.00 | 97 | 1021.6 |
| 20260831085006 | 66 | 267 | 1.0 | 3.0 | 0.00 | 0.00 | 0.00 | 97 | 1021.5 |
| 20260831084545 | 66 | 267 | 1.0 | 3.0 | 0.00 | 0.00 | 0.00 | 97 | 1021.5 |
| 20260831084013 | 66 | 266 | 1.0 | 3.0 | 0.00 | 0.00 | 0.00 | 97 | 1021.5 |
| 20260831083513 | 66 | 265 | 1.0 | 3.0 | 0.00 | 0.00 | 0.00 | 97 | 1021.4 |
| 20260831083006 | 66 | 265 | 1.0 | 3.0 | 0.00 | 0.00 | 0.00 | 97 | 1021.4 |
| 20260831082506 | 66 | 265 | 1.0 | 3.0 | 0.00 | 0.00 | 0.00 | 97 | 1021.4 |
| 20260831082006 | 66 | 265 | 1.0 | 3.0 | 0.00 | 0.00 | 0.00 | 97 | 1021.5 |
| 20260831081507 | 66 | 264 | 1.0 | 3.0 | 0.00 | 0.00 | 0.00 | 97 | 1021.5 |
| 20260831081013 | 66 | 264 | 1.0 | 3.0 | 0.00 | 0.00 | 0.00 | 97 | 1021.5 |
| 20260831080506 | 66 | 262 | 1.0 | 3.0 | 0.00 | 0.00 | 0.00 | 97 | 1021.6 |
| 20260831080037 | 66 | 261 | 1.0 | 3.0 | 0.00 | 0.00 | 0.00 | 97 | 1021.5 |
| 20260831075320 | 66 | 261 | 1.0 | 3.0 | 0.00 | 0.00 | 0.00 | 97 | 1021.6 |
| 20260831074820 | 66 | 261 | 1.0 | 3.0 | 0.00 | 0.00 | 0.00 | 97 | 1021.6 |
| 20260831074322 | 66 | 261 | 1.0 | 3.0 | 0.00 | 0.00 | 0.00 | 97 | 1021.6 |
| 20260831073832 | 66 | 261 | 2.0 | 3.0 | 0.00 | 0.00 | 0.00 | 97 | 1021.6 |
| 20260831073320 | 66 | 260 | 2.0 | 3.0 | 0.00 | 0.00 | 0.00 | 97 | 1021.6 |
| 20260831072035 | 66 | 260 | 1.0 | 3.0 | 0.00 | 0.00 | 0.00 | 97 | 1021.6 |
| 20260831071524 | 66 | 259 | 1.0 | 3.0 | 0.00 | 0.00 | 0.00 | 97 | 1021.5 |
| 20260831070902 | 67 | 259 | 1.0 | 3.0 | 0.00 | 0.00 | 0.00 | 97 | 1021.5 |
| 20260831070404 | 67 | 259 | 1.0 | 3.0 | 0.00 | 0.00 | 0.00 | 97 | 1021.5 |
| 20260831065903 | 67 | 259 | 1.0 | 3.0 | 0.00 | 0.00 | 0.00 | 97 | 1021.7 |
| 20260831065402 | 67 | 259 | 1.0 | 3.0 | 0.00 | 0.00 | 0.00 | 96 | 1021.7 |
| 20260831064910 | 67 | 259 | 2.0 | 3.0 | 0.00 | 0.00 | 0.00 | 96 | 1021.7 |
| 20260831064410 | 67 | 259 | 2.0 | 3.0 | 0.00 | 0.00 | 0.00 | 96 | 1021.9 |
| 20260831063916 | 67 | 259 | 1.0 | 3.0 | 0.00 | 0.00 | 0.00 | 96 | 1021.9 |
| 20260831063410 | 67 | 259 | 1.0 | 3.0 | 0.00 | 0.00 | 0.00 | 96 | 1021.8 |
| 20260831062920 | 67 | 259 | 1.0 | 3.0 | 0.00 | 0.00 | 0.00 | 96 | 1021.9 |
| 20260831062414 | 67 | 259 | 1.0 | 3.0 | 0.00 | 0.00 | 0.00 | 96 | 1021.8 |
| 20260831061902 | 67 | 259 | 2.0 | 3.0 | 0.00 | 0.00 | 0.00 | 96 | 1021.8 |
| 20260831061326 | 67 | 259 | 1.0 | 3.0 | 0.00 | 0.00 | 0.00 | 96 | 1021.9 |
| 20260831060826 | 67 | 259 | 1.0 | 3.0 | 0.00 | 0.00 | 0.00 | 96 | 1021.9 |
| 20260831060326 | 67 | 0 | 0.0 | 3.0 | 0.00 | 0.00 | 0.00 | 96 | 1021.9 |
| 20260831055826 | 67 | 259 | 1.0 | 3.0 | 0.00 | 0.00 | 0.00 | 96 | 1022.0 |
| 20260831055326 | 67 | 0 | 0.0 | 2.0 | 0.00 | 0.00 | 0.00 | 96 | 1022.1 |
| 20260831054835 | 67 | 0 | 0.0 | 0.0 | 0.00 | 0.00 | 0.00 | 96 | 1022.2 |
| 20260831054335 | 67 | 0 | 0.0 | 1.0 | 0.00 | 0.00 | 0.00 | 96 | 1022.2 |
| 20260831053826 | 67 | 0 | 0.0 | 1.0 | 0.00 | 0.00 | 0.00 | 96 | 1022.2 |
| 20260831053355 | 67 | 0 | 0.0 | 1.0 | 0.00 | 0.00 | 0.00 | 96 | 1022.3 |
| 20260831052828 | 67 | 0 | 0.0 | 1.0 | 0.00 | 0.00 | 0.00 | 96 | 1022.2 |
| 20260831052337 | 67 | 0 | 0.0 | 2.0 | 0.00 | 0.00 | 0.00 | 96 | 1022.3 |
| 20260831051837 | 67 | 0 | 0.0 | 2.0 | 0.00 | 0.00 | 0.00 | 96 | 1022.3 |
| 20260831051331 | 67 | 259 | 1.0 | 2.0 | 0.00 | 0.00 | 0.00 | 96 | 1022.3 |
| 20260831050827 | 67 | 259 | 1.0 | 3.0 | 0.00 | 0.00 | 0.00 | 96 | 1022.2 |
| 20260831050334 | 67 | 259 | 1.0 | 3.0 | 0.00 | 0.00 | 0.00 | 96 | 1022.3 |
| 20260831045829 | 67 | 259 | 1.0 | 3.0 | 0.00 | 0.00 | 0.00 | 96 | 1022.2 |
| 20260831045351 | 67 | 259 | 2.0 | 3.0 | 0.00 | 0.00 | 0.00 | 96 | 1022.2 |
| 20260831044826 | 67 | 259 | 1.0 | 3.0 | 0.00 | 0.00 | 0.00 | 96 | 1022.2 |
| 20260831044326 | 67 | 259 | 1.0 | 3.0 | 0.00 | 0.00 | 0.00 | 96 | 1022.2 |
| 20260831043828 | 67 | 259 | 2.0 | 4.0 | 0.00 | 0.00 | 0.00 | 95 | 1022.2 |
| 20260831043326 | 67 | 253 | 2.0 | 4.0 | 0.00 | 0.00 | 0.00 | 95 | 1022.3 |
| 20260831042831 | 67 | 252 | 1.0 | 3.0 | 0.00 | 0.00 | 0.00 | 95 | 1022.4 |
| 20260831042331 | 67 | 252 | 1.0 | 3.0 | 0.00 | 0.00 | 0.00 | 96 | 1022.4 |
| 20260831041537 | 67 | 0 | 0.0 | 0.0 | 0.00 | 0.00 | 0.00 | 96 | 1022.4 |
| 20260831041044 | 67 | 0 | 0.0 | 0.0 | 0.00 | 0.00 | 0.00 | 96 | 1022.5 |
| 20260831040539 | 67 | 0 | 0.0 | 2.0 | 0.00 | 0.00 | 0.00 | 95 | 1022.6 |
| 20260831040038 | 67 | 0 | 0.0 | 2.0 | 0.00 | 0.00 | 0.00 | 95 | 1022.6 |
| 20260831035537 | 67 | 252 | 1.0 | 2.0 | 0.00 | 0.00 | 0.00 | 95 | 1022.6 |
| 20260831035039 | 67 | 0 | 0.0 | 2.0 | 0.00 | 0.00 | 0.00 | 95 | 1022.7 |
| 20260831034537 | 67 | 0 | 0.0 | 3.0 | 0.00 | 0.00 | 0.00 | 95 | 1022.7 |
| 20260831034043 | 67 | 252 | 1.0 | 3.0 | 0.00 | 0.00 | 0.00 | 95 | 1022.7 |
| 20260831033539 | 68 | 0 | 0.0 | 2.0 | 0.00 | 0.00 | 0.00 | 95 | 1022.7 |
| 20260831033039 | 68 | 0 | 0.0 | 1.0 | 0.00 | 0.00 | 0.00 | 95 | 1022.7 |
| 20260831032537 | 68 | 0 | 0.0 | 2.0 | 0.00 | 0.00 | 0.00 | 95 | 1022.7 |
| 20260831032037 | 68 | 0 | 0.0 | 2.0 | 0.00 | 0.00 | 0.00 | 95 | 1022.8 |
| 20260831031219 | 68 | 0 | 0.0 | 1.0 | 0.00 | 0.00 | 0.00 | 94 | 1022.9 |
| 20260831030719 | 68 | 0 | 0.0 | 0.0 | 0.00 | 0.00 | 0.00 | 95 | 1022.8 |
| 20260831030219 | 68 | 0 | 0.0 | 1.0 | 0.00 | 0.00 | 0.00 | 95 | 1022.9 |
| 20260831025719 | 68 | 0 | 0.0 | 3.0 | 0.00 | 0.00 | 0.00 | 95 | 1022.9 |
| 20260831025220 | 68 | 0 | 0.0 | 5.0 | 0.00 | 0.00 | 0.00 | 95 | 1022.8 |
| 20260831024719 | 68 | 0 | 0.0 | 5.0 | 0.00 | 0.00 | 0.00 | 94 | 1022.8 |
| 20260831024220 | 68 | 0 | 0.0 | 3.0 | 0.00 | 0.00 | 0.00 | 94 | 1022.9 |
| 20260831023721 | 68 | 0 | 0.0 | 3.0 | 0.00 | 0.00 | 0.00 | 94 | 1022.9 |
| 20260831023219 | 68 | 0 | 0.0 | 1.0 | 0.00 | 0.00 | 0.00 | 94 | 1023.0 |
| 20260831022719 | 68 | 0 | 0.0 | 1.0 | 0.00 | 0.00 | 0.00 | 94 | 1023.0 |
| 20260831022219 | 69 | 0 | 0.0 | 3.0 | 0.00 | 0.00 | 0.00 | 94 | 1023.1 |
| 20260831021719 | 69 | 0 | 0.0 | 3.0 | 0.00 | 0.00 | 0.00 | 94 | 1023.1 |
| 20260831020824 | 69 | 0 | 0.0 | 2.0 | 0.00 | 0.00 | 0.00 | 94 | 1023.1 |
| 20260831020324 | 69 | 0 | 0.0 | 2.0 | 0.00 | 0.00 | 0.00 | 93 | 1023.1 |
| 20260831015752 | 69 | 0 | 0.0 | 5.0 | 0.00 | 0.00 | 0.00 | 93 | 1023.1 |
| 20260831015253 | 69 | 0 | 0.0 | 5.0 | 0.00 | 0.00 | 0.00 | 93 | 1023.1 |
| 20260831014752 | 69 | 0 | 0.0 | 3.0 | 0.00 | 0.00 | 0.00 | 93 | 1023.0 |
| 20260831014252 | 69 | 0 | 0.0 | 2.0 | 0.00 | 0.00 | 0.00 | 93 | 1022.8 |
| 20260831013752 | 69 | 0 | 0.0 | 2.0 | 0.00 | 0.00 | 0.00 | 93 | 1022.7 |
| 20260831013252 | 69 | 0 | 0.0 | 2.0 | 0.00 | 0.00 | 0.00 | 93 | 1022.6 |
| 20260831012752 | 69 | 0 | 0.0 | 4.0 | 0.00 | 0.00 | 0.00 | 93 | 1022.7 |
| 20260831012253 | 69 | 0 | 0.0 | 4.0 | 0.00 | 0.00 | 0.00 | 93 | 1022.6 |
| 20260831011850 | 69 | 0 | 0.0 | 3.0 | 0.00 | 0.00 | 0.00 | 93 | 1022.6 |
| 20260831011252 | 69 | 0 | 0.0 | 3.0 | 0.00 | 0.00 | 0.00 | 93 | 1022.5 |
| 20260831010755 | 69 | 0 | 0.0 | 2.0 | 0.00 | 0.00 | 0.00 | 92 | 1022.4 |
| 20260831010257 | 70 | 0 | 0.0 | 4.0 | 0.00 | 0.00 | 0.00 | 92 | 1022.4 |
| 20260831005752 | 70 | 0 | 0.0 | 4.0 | 0.00 | 0.00 | 0.00 | 92 | 1022.2 |
| 20260831005306 | 70 | 0 | 0.0 | 1.0 | 0.00 | 0.00 | 0.00 | 91 | 1022.2 |
| 20260831004804 | 70 | 0 | 0.0 | 2.0 | 0.00 | 0.00 | 0.00 | 91 | 1022.1 |
| 20260831004252 | 70 | 0 | 0.0 | 2.0 | 0.00 | 0.00 | 0.00 | 91 | 1022.1 |
| 20260831003752 | 70 | 0 | 0.0 | 2.0 | 0.00 | 0.00 | 0.00 | 90 | 1022.0 |
| 20260831003252 | 70 | 0 | 0.0 | 2.0 | 0.00 | 0.00 | 0.00 | 90 | 1022.0 |
| 20260831002755 | 71 | 0 | 0.0 | 2.0 | 0.00 | 0.00 | 0.00 | 90 | 1022.0 |
| 20260831002253 | 71 | 0 | 0.0 | 3.0 | 0.00 | 0.00 | 0.00 | 89 | 1022.1 |
| 20260831001752 | 71 | 0 | 0.0 | 3.0 | 0.00 | 0.00 | 0.00 | 88 | 1022.0 |
| 20260831001252 | 71 | 0 | 0.0 | 2.0 | 0.00 | 0.00 | 0.00 | 87 | 1022.1 |
| 20260831000752 | 71 | 0 | 0.0 | 1.0 | 0.00 | 0.00 | 0.00 | 86 | 1022.1 |
| 20260831000306 | 72 | 0 | 0.0 | 1.0 | 0.00 | 0.00 | 0.00 | 86 | 1022.1 |
| 20260830235752 | 72 | 0 | 0.0 | 1.0 | 0.00 | 0.00 | 0.00 | 86 | 1021.9 |
| 20260830235255 | 72 | 0 | 0.0 | 1.0 | 0.00 | 0.00 | 0.00 | 85 | 1021.9 |
| 20260830234752 | 72 | 0 | 0.0 | 1.0 | 0.00 | 0.00 | 0.00 | 85 | 1021.8 |
| 20260830234252 | 72 | 0 | 0.0 | 0.0 | 0.00 | 0.00 | 0.00 | 85 | 1021.8 |
| 20260830233752 | 73 | 0 | 0.0 | 0.0 | 0.00 | 0.00 | 0.00 | 86 | 1021.9 |
| 20260830233252 | 73 | 0 | 0.0 | 0.0 | 0.00 | 0.00 | 0.00 | 86 | 1021.9 |
| 20260830232752 | 73 | 0 | 0.0 | 1.0 | 0.00 | 0.00 | 0.00 | 86 | 1021.9 |
| 20260830232252 | 73 | 0 | 0.0 | 1.0 | 0.00 | 0.00 | 0.00 | 86 | 1022.0 |
| 20260830231811 | 73 | 0 | 0.0 | 0.0 | 0.00 | 0.00 | 0.00 | 85 | 1022.0 |
| 20260830231252 | 74 | 0 | 0.0 | 0.0 | 0.00 | 0.00 | 0.00 | 85 | 1022.0 |
| 20260830230752 | 74 | 0 | 0.0 | 0.0 | 0.00 | 0.00 | 0.00 | 85 | 1021.9 |
| 20260830230252 | 74 | 0 | 0.0 | 0.0 | 0.00 | 0.00 | 0.00 | 85 | 1021.9 |
| 20260830225752 | 74 | 0 | 0.0 | 0.0 | 0.00 | 0.00 | 0.00 | 85 | 1021.9 |
| 20260830225252 | 74 | 0 | 0.0 | 0.0 | 0.00 | 0.00 | 0.00 | 85 | 1022.0 |
| 20260830224827 | 74 | 0 | 0.0 | 0.0 | 0.00 | 0.00 | 0.00 | 85 | 1022.0 |
| 20260830224252 | 74 | 0 | 0.0 | 0.0 | 0.00 | 0.00 | 0.00 | 84 | 1022.0 |
| 20260830223844 | 74 | 0 | 0.0 | 1.0 | 0.00 | 0.00 | 0.00 | 83 | 1022.0 |
| 20260830223252 | 75 | 0 | 0.0 | 3.0 | 0.00 | 0.00 | 0.00 | 82 | 1022.1 |
| 20260830222752 | 75 | 0 | 0.0 | 3.0 | 0.00 | 0.00 | 0.00 | 81 | 1022.1 |
| 20260830222252 | 75 | 0 | 0.0 | 2.0 | 0.00 | 0.00 | 0.00 | 84 | 1022.1 |
| 20260830221752 | 75 | 0 | 0.0 | 0.0 | 0.00 | 0.00 | 0.00 | 82 | 1022.1 |
| 20260830221252 | 75 | 0 | 0.0 | 0.0 | 0.00 | 0.00 | 0.00 | 83 | 1022.1 |
| 20260830220801 | 75 | 0 | 0.0 | 0.0 | 0.00 | 0.00 | 0.00 | 84 | 1022.1 |
| 20260830220252 | 74 | 0 | 0.0 | 0.0 | 0.00 | 0.00 | 0.00 | 83 | 1022.2 |
| 20260830215752 | 74 | 0 | 0.0 | 0.0 | 0.00 | 0.00 | 0.00 | 84 | 1022.1 |
| 20260830215252 | 74 | 0 | 0.0 | 0.0 | 0.00 | 0.00 | 0.00 | 84 | 1022.1 |
| 20260830214752 | 74 | 0 | 0.0 | 0.0 | 0.00 | 0.00 | 0.00 | 85 | 1022.1 |
| 20260830214252 | 74 | 0 | 0.0 | 0.0 | 0.00 | 0.00 | 0.00 | 85 | 1022.1 |
| 20260830213425 | 74 | 0 | 0.0 | 0.0 | 0.00 | 0.00 | 0.00 | 84 | 1022.0 |
| 20260830212925 | 74 | 0 | 0.0 | 0.0 | 0.00 | 0.00 | 0.00 | 83 | 1022.0 |
| 20260830212428 | 75 | 0 | 0.0 | 0.0 | 0.00 | 0.00 | 0.00 | 82 | 1022.0 |
| 20260830211929 | 75 | 0 | 0.0 | 0.0 | 0.00 | 0.00 | 0.00 | 82 | 1021.9 |
| 20260830211425 | 76 | 0 | 0.0 | 0.0 | 0.00 | 0.00 | 0.00 | 82 | 1022.1 |
| 20260830210925 | 76 | 0 | 0.0 | 0.0 | 0.00 | 0.00 | 0.00 | 81 | 1022.0 |
| 20260830210425 | 76 | 0 | 0.0 | 0.0 | 0.00 | 0.00 | 0.00 | 80 | 1022.1 |
| 20260830205925 | 77 | 0 | 0.0 | 0.0 | 0.00 | 0.00 | 0.00 | 80 | 1022.1 |
| 20260830205425 | 77 | 0 | 0.0 | 0.0 | 0.00 | 0.00 | 0.00 | 80 | 1022.1 |
| 20260830204925 | 77 | 0 | 0.0 | 0.0 | 0.00 | 0.00 | 0.00 | 79 | 1022.0 |
| 20260830204425 | 77 | 0 | 0.0 | 0.0 | 0.00 | 0.00 | 0.00 | 78 | 1021.9 |
| 20260830203925 | 78 | 0 | 0.0 | 0.0 | 0.00 | 0.00 | 0.00 | 77 | 1021.9 |
| 20260830203211 | 78 | 0 | 0.0 | 0.0 | 0.00 | 0.00 | 0.00 | 78 | 1021.9 |
| 20260830202732 | 78 | 0 | 0.0 | 0.0 | 0.00 | 0.00 | 0.00 | 76 | 1021.9 |
| 20260830202212 | 78 | 0 | 0.0 | 0.0 | 0.00 | 0.00 | 0.00 | 76 | 1022.0 |
| 20260830201713 | 79 | 0 | 0.0 | 0.0 | 0.00 | 0.00 | 0.00 | 75 | 1022.1 |
| 20260830201214 | 79 | 0 | 0.0 | 0.0 | 0.00 | 0.00 | 0.00 | 78 | 1022.2 |
| 20260830200711 | 79 | 0 | 0.0 | 2.0 | 0.00 | 0.00 | 0.00 | 76 | 1022.2 |
| 20260830200211 | 79 | 0 | 0.0 | 2.0 | 0.00 | 0.00 | 0.00 | 78 | 1022.3 |
| 20260830195711 | 79 | 0 | 0.0 | 0.0 | 0.00 | 0.00 | 0.00 | 77 | 1022.3 |
| 20260830195211 | 79 | 0 | 0.0 | 0.0 | 0.00 | 0.00 | 0.00 | 76 | 1022.2 |
| 20260830194730 | 79 | 0 | 0.0 | 0.0 | 0.00 | 0.00 | 0.00 | 76 | 1022.4 |
| 20260830194211 | 79 | 0 | 0.0 | 0.0 | 0.00 | 0.00 | 0.00 | 76 | 1022.4 |
| 20260830193711 | 79 | 0 | 0.0 | 0.0 | 0.00 | 0.00 | 0.00 | 76 | 1022.4 |
| 20260830193215 | 79 | 0 | 0.0 | 0.0 | 0.00 | 0.00 | 0.00 | 78 | 1022.4 |
| 20260830192210 | 79 | 0 | 0.0 | 1.0 | 0.00 | 0.00 | 0.00 | 77 | 1022.7 |
| 20260830191710 | 79 | 0 | 0.0 | 1.0 | 0.00 | 0.00 | 0.00 | 75 | 1022.7 |
| 20260830191211 | 79 | 0 | 0.0 | 1.0 | 0.00 | 0.00 | 0.00 | 79 | 1022.8 |
| 20260830190710 | 79 | 0 | 0.0 | 2.0 | 0.00 | 0.00 | 0.00 | 78 | 1022.9 |
| 20260830190211 | 79 | 0 | 0.0 | 2.0 | 0.00 | 0.00 | 0.00 | 76 | 1022.9 |
| 20260830185722 | 79 | 0 | 0.0 | 1.0 | 0.00 | 0.00 | 0.00 | 76 | 1022.9 |
| 20260830185210 | 79 | 0 | 0.0 | 1.0 | 0.00 | 0.00 | 0.00 | 78 | 1023.0 |
| 20260830184710 | 79 | 0 | 0.0 | 1.0 | 0.00 | 0.00 | 0.00 | 79 | 1023.1 |
| 20260830184212 | 79 | 0 | 0.0 | 5.0 | 0.00 | 0.00 | 0.00 | 78 | 1023.1 |
| 20260830183710 | 79 | 0 | 0.0 | 5.0 | 0.00 | 0.00 | 0.00 | 79 | 1023.1 |
| 20260830183214 | 79 | 0 | 0.0 | 1.0 | 0.00 | 0.00 | 0.00 | 79 | 1023.1 |
| 20260830182710 | 79 | 0 | 0.0 | 2.0 | 0.00 | 0.00 | 0.00 | 81 | 1023.1 |
| 20260830182212 | 78 | 0 | 0.0 | 2.0 | 0.00 | 0.00 | 0.00 | 78 | 1023.4 |
| 20260830181710 | 79 | 0 | 0.0 | 1.0 | 0.00 | 0.00 | 0.00 | 77 | 1023.5 |
| 20260830181210 | 79 | 0 | 0.0 | 3.0 | 0.00 | 0.00 | 0.00 | 75 | 1023.6 |
| 20260830180710 | 80 | 0 | 0.0 | 3.0 | 0.00 | 0.00 | 0.00 | 78 | 1023.5 |
| 20260830175724 | 79 | 0 | 0.0 | 4.0 | 0.00 | 0.00 | 0.00 | 77 | 1023.7 |
| 20260830175223 | 79 | 132 | 1.0 | 4.0 | 0.00 | 0.00 | 0.00 | 78 | 1023.7 |
| 20260830174723 | 79 | 0 | 0.0 | 2.0 | 0.00 | 0.00 | 0.00 | 77 | 1024.0 |
| 20260830174222 | 79 | 0 | 0.0 | 2.0 | 0.00 | 0.00 | 0.00 | 77 | 1024.1 |
| 20260830173723 | 79 | 0 | 0.0 | 2.0 | 0.00 | 0.00 | 0.00 | 79 | 1024.0 |
| 20260830173225 | 78 | 0 | 0.0 | 2.0 | 0.00 | 0.00 | 0.00 | 79 | 1024.2 |
| 20260830172723 | 78 | 0 | 0.0 | 2.0 | 0.00 | 0.00 | 0.00 | 81 | 1024.2 |
| 20260830172223 | 78 | 0 | 0.0 | 4.0 | 0.00 | 0.00 | 0.00 | 78 | 1024.3 |
| 20260830171723 | 79 | 0 | 0.0 | 4.0 | 0.00 | 0.00 | 0.00 | 79 | 1024.3 |
| 20260830171222 | 78 | 0 | 0.0 | 2.0 | 0.00 | 0.00 | 0.00 | 79 | 1024.4 |
| 20260830170723 | 78 | 0 | 0.0 | 2.0 | 0.00 | 0.00 | 0.00 | 76 | 1024.6 |
| 20260830170222 | 79 | 0 | 0.0 | 1.0 | 0.00 | 0.00 | 0.00 | 75 | 1024.7 |
| 20260830165724 | 79 | 0 | 0.0 | 1.0 | 0.00 | 0.00 | 0.00 | 80 | 1024.7 |
| 20260830165223 | 78 | 0 | 0.0 | 1.0 | 0.00 | 0.00 | 0.00 | 80 | 1024.7 |
| 20260830164723 | 78 | 0 | 0.0 | 1.0 | 0.00 | 0.00 | 0.00 | 76 | 1024.8 |
| 20260830164225 | 78 | 0 | 0.0 | 1.0 | 0.00 | 0.00 | 0.00 | 77 | 1024.9 |
| 20260830163722 | 79 | 0 | 0.0 | 1.0 | 0.00 | 0.00 | 0.00 | 75 | 1024.9 |
| 20260830163222 | 78 | 0 | 0.0 | 1.0 | 0.00 | 0.00 | 0.00 | 78 | 1024.9 |
| 20260830162722 | 78 | 0 | 0.0 | 1.0 | 0.00 | 0.00 | 0.00 | 77 | 1024.9 |
| 20260830162224 | 77 | 0 | 0.0 | 0.0 | 0.00 | 0.00 | 0.00 | 80 | 1024.8 |
| 20260830161723 | 76 | 0 | 0.0 | 0.0 | 0.00 | 0.00 | 0.00 | 82 | 1024.9 |
| 20260830161222 | 75 | 0 | 0.0 | 0.0 | 0.00 | 0.00 | 0.00 | 80 | 1024.9 |
| 20260830160732 | 76 | 0 | 0.0 | 0.0 | 0.00 | 0.00 | 0.00 | 79 | 1024.9 |
| 20260830160224 | 75 | 0 | 0.0 | 2.0 | 0.00 | 0.00 | 0.00 | 84 | 1024.9 |
| 20260830155722 | 74 | 0 | 0.0 | 2.0 | 0.00 | 0.00 | 0.00 | 81 | 1024.9 |
| 20260830154925 | 74 | 0 | 0.0 | 0.0 | 0.00 | 0.00 | 0.00 | 84 | 1025.0 |
| 20260830154425 | 74 | 0 | 0.0 | 1.0 | 0.00 | 0.00 | 0.00 | 84 | 1025.0 |
| 20260830153925 | 74 | 0 | 0.0 | 2.0 | 0.00 | 0.00 | 0.00 | 86 | 1025.1 |
| 20260830153430 | 73 | 0 | 0.0 | 2.0 | 0.00 | 0.00 | 0.00 | 83 | 1025.0 |
| 20260830152925 | 73 | 0 | 0.0 | 2.0 | 0.00 | 0.00 | 0.00 | 85 | 1025.0 |
| 20260830152430 | 73 | 0 | 0.0 | 1.0 | 0.00 | 0.00 | 0.00 | 86 | 1024.9 |
| 20260830151928 | 73 | 0 | 0.0 | 1.0 | 0.00 | 0.00 | 0.00 | 85 | 1024.9 |
| 20260830151425 | 73 | 0 | 0.0 | 1.0 | 0.00 | 0.00 | 0.00 | 87 | 1024.9 |
| 20260830150925 | 73 | 0 | 0.0 | 1.0 | 0.00 | 0.00 | 0.00 | 88 | 1025.0 |
| 20260830150430 | 72 | 0 | 0.0 | 2.0 | 0.00 | 0.00 | 0.00 | 91 | 1024.9 |
| 20260830145925 | 71 | 0 | 0.0 | 3.0 | 0.00 | 0.00 | 0.00 | 89 | 1024.9 |
| 20260830145425 | 71 | 0 | 0.0 | 3.0 | 0.00 | 0.00 | 0.00 | 89 | 1024.9 |
| 20260830144928 | 71 | 0 | 0.0 | 1.0 | 0.00 | 0.00 | 0.00 | 88 | 1024.9 |
| 20260830144431 | 71 | 0 | 0.0 | 1.0 | 0.00 | 0.00 | 0.00 | 89 | 1024.9 |
| 20260830143925 | 71 | 0 | 0.0 | 1.0 | 0.00 | 0.00 | 0.00 | 88 | 1024.9 |
| 20260830143425 | 71 | 0 | 0.0 | 1.0 | 0.00 | 0.00 | 0.00 | 88 | 1024.9 |
| 20260830142925 | 71 | 0 | 0.0 | 1.0 | 0.00 | 0.00 | 0.00 | 89 | 1024.8 |
| 20260830142425 | 71 | 0 | 0.0 | 1.0 | 0.00 | 0.00 | 0.00 | 89 | 1024.8 |
| 20260830141925 | 71 | 0 | 0.0 | 0.0 | 0.00 | 0.00 | 0.00 | 90 | 1024.8 |
| 20260830141425 | 71 | 0 | 0.0 | 0.0 | 0.00 | 0.00 | 0.00 | 89 | 1024.7 |
| 20260830140925 | 71 | 0 | 0.0 | 1.0 | 0.00 | 0.00 | 0.00 | 90 | 1024.6 |
| 20260830140427 | 71 | 0 | 0.0 | 2.0 | 0.00 | 0.00 | 0.00 | 91 | 1024.7 |
| 20260830135928 | 71 | 0 | 0.0 | 2.0 | 0.00 | 0.00 | 0.00 | 93 | 1024.7 |
| 20260830135425 | 70 | 0 | 0.0 | 1.0 | 0.00 | 0.00 | 0.00 | 95 | 1024.7 |
| 20260830134927 | 70 | 0 | 0.0 | 2.0 | 0.00 | 0.00 | 0.00 | 96 | 1024.6 |
| 20260830134426 | 69 | 0 | 0.0 | 2.0 | 0.00 | 0.00 | 0.00 | 98 | 1024.7 |
| 20260830133925 | 69 | 0 | 0.0 | 2.0 | 0.00 | 0.00 | 0.00 | 98 | 1024.8 |
| 20260830133428 | 68 | 0 | 0.0 | 1.0 | 0.00 | 0.00 | 0.00 | 98 | 1024.8 |
| 20260830132926 | 68 | 0 | 0.0 | 1.0 | 0.00 | 0.00 | 0.00 | 98 | 1024.9 |
| 20260830132425 | 67 | 0 | 0.0 | 0.0 | 0.00 | 0.00 | 0.00 | 98 | 1024.9 |
| 20260830131925 | 67 | 0 | 0.0 | 0.0 | 0.00 | 0.00 | 0.00 | 98 | 1024.9 |
| 20260830131425 | 67 | 0 | 0.0 | 1.0 | 0.00 | 0.00 | 0.00 | 98 | 1024.9 |
| 20260830130925 | 66 | 0 | 0.0 | 1.0 | 0.00 | 0.00 | 0.00 | 98 | 1024.8 |
| 20260830130427 | 66 | 0 | 0.0 | 1.0 | 0.00 | 0.00 | 0.00 | 98 | 1024.9 |
| 20260830125928 | 66 | 0 | 0.0 | 2.0 | 0.00 | 0.00 | 0.00 | 99 | 1025.0 |
| 20260830125432 | 66 | 0 | 0.0 | 2.0 | 0.00 | 0.00 | 0.00 | 99 | 1024.8 |